Location: S�tio Afonso Gruber
(26.1760°S, 49.5250°W)
Time: 23:29:35
(UTC+00:00)

GPS 2-04 Rocket1 - Pass Details

Date: 07 June 2020
Orbit: 419 x 548 km, 35.6° (Epoch: 10 July)

Event Time Altitude Azimuth Distance (km) Brightness Sun altitude
Exits shadow 09:05:45 15° 221° (SW) 1,552 4.6 -12.2°
Maximum altitude 09:08:03 22° 180° (S) 1,241 4.4 -11.7°
Drops below altitude 10° 09:11:22 10° 128° (SE) 1,824 5.9 -11.0°
Sets 09:14:02 0° 113° (ESE) 2,706 7.1 -10.5°
